KB0ZXY Weather Reports


Display with metric or nautical units.
time (UTC)temp
F
wind
direction
speed
MPH
gust
MPH
rain 1hr
in
rain 24hr
in
rain mn
in
humidity
%
barometer
mb
20181210181330 38 204 3.0 7.0 0.00 0.01 0.00 63 1026.6
20181210180334 37 140 3.0 8.0 0.00 0.01 0.00 64 1026.7
20181210175322 37 200 5.0 9.0 0.00 0.01 0.00 63 1026.8
20181210174331 36 162 5.0 8.0 0.00 0.01 0.00 66 1026.9
20181210173318 36 156 3.0 7.0 0.00 0.01 0.00 67 1027.1
20181210172326 35 227 2.0 6.0 0.00 0.01 0.00 67 1027.3
20181210171332 34 204 4.0 6.0 0.00 0.01 0.00 65 1027.2
20181210170320 33 201 3.0 7.0 0.00 0.01 0.00 74 1027.4
20181210165324 32 202 4.0 6.0 0.00 0.01 0.00 76 1027.6
20181210164328 32 152 3.0 7.0 0.00 0.01 0.00 77 1027.7
20181210163332 31 167 2.0 4.0 0.00 0.01 0.00 81 1027.9
20181210162319 31 174 2.0 5.0 0.00 0.01 0.00 82 1027.9
20181210161325 30 188 3.0 5.0 0.00 0.01 0.00 84 1027.8
20181210160329 29 239 3.0 6.0 0.00 0.01 0.00 85 1027.8
20181210155320 28 192 5.0 8.0 0.00 0.01 0.00 86 1027.8
20181210154327 28 188 4.0 6.0 0.00 0.01 0.00 90 1027.8
20181210153332 27 225 5.0 9.0 0.00 0.01 0.00 90 1027.6
20181210152338 26 198 3.0 5.0 0.00 0.01 0.00 93 1027.5
20181210151324 24 200 2.0 5.0 0.00 0.01 0.00 94 1027.4
20181210150328 23 176 1.0 4.0 0.00 0.01 0.00 95 1027.4
20181210145332 22 186 2.0 4.0 0.00 0.01 0.00 95 1027.4
20181210144319 20 186 2.0 4.0 0.00 0.01 0.00 95 1027.2
20181210143330 17 206 3.0 4.0 0.00 0.01 0.00 94 1027.0
20181210142337 16 193 1.0 3.0 0.00 0.01 0.00 93 1027.0
20181210141320 15 193 2.0 3.0 0.00 0.01 0.00 92 1026.9
20181210140329 15 351 0.0 1.0 0.00 0.01 0.00 91 1027.1
20181210135320 15 351 0.0 0.0 0.00 0.01 0.00 91 1027.0
20181210134326 15 351 0.0 0.0 0.00 0.01 0.00 90 1027.0
20181210133331 15 351 0.0 0.0 0.00 0.01 0.00 89 1026.8
20181210132335 16 351 0.0 0.0 0.00 0.01 0.00 91 1026.9
20181210131323 17 351 0.0 0.0 0.00 0.01 0.00 93 1026.8
20181210130331 16 351 0.0 0.0 0.00 0.01 0.00 94 1026.9
20181210125315 15 351 0.0 0.0 0.00 0.01 0.00 92 1026.8
20181210124322 15 351 0.0 0.0 0.00 0.01 0.00 91 1026.7
20181210123334 15 351 0.0 0.0 0.00 0.01 0.00 91 1026.6
20181210122321 15 351 0.0 0.0 0.00 0.01 0.00 91 1026.6
20181210121326 15 351 0.0 0.0 0.00 0.01 0.00 91 1026.5
20181210120332 15 351 0.0 0.0 0.00 0.01 0.00 92 1026.4
20181210115320 15 351 0.0 0.0 0.00 0.01 0.00 92 1026.4
20181210114328 14 351 0.0 0.0 0.00 0.01 0.00 91 1026.3
20181210113336 15 351 0.0 0.0 0.00 0.01 0.00 91 1026.4
20181210112320 15 351 0.0 0.0 0.00 0.01 0.00 91 1026.4
20181210111329 15 351 0.0 0.0 0.00 0.01 0.00 92 1026.3
20181210110317 15 351 0.0 0.0 0.00 0.01 0.00 91 1026.3
20181210105325 15 351 0.0 0.0 0.00 0.01 0.00 91 1026.4
20181210104332 15 351 0.0 0.0 0.00 0.01 0.00 91 1026.4
20181210103320 15 351 0.0 0.0 0.00 0.01 0.00 91 1026.3
20181210102328 16 351 0.0 0.0 0.00 0.01 0.00 92 1026.3
20181210101332 16 351 0.0 0.0 0.00 0.01 0.00 91 1026.5
20181210100319 16 351 0.0 0.0 0.00 0.01 0.00 91 1026.5
20181210095326 16 351 0.0 0.0 0.00 0.01 0.00 90 1026.5
20181210094334 16 351 0.0 0.0 0.00 0.01 0.00 90 1026.6
20181210093318 17 351 0.0 0.0 0.00 0.01 0.00 91 1026.7
20181210092327 17 351 0.0 0.0 0.00 0.01 0.00 92 1026.8
20181210091332 17 351 0.0 0.0 0.00 0.01 0.00 92 1026.8
20181210090335 17 351 0.0 0.0 0.00 0.01 0.00 92 1026.8
20181210085319 17 351 0.0 0.0 0.00 0.01 0.00 92 1026.7
20181210084331 17 351 0.0 0.0 0.00 0.01 0.00 92 1026.6
20181210083336 17 351 0.0 0.0 0.00 0.01 0.00 91 1026.6
20181210082320 18 351 0.0 0.0 0.00 0.01 0.00 91 1026.7
20181210081324 18 351 0.0 0.0 0.00 0.01 0.00 92 1026.7
20181210080332 18 351 0.0 0.0 0.00 0.01 0.00 92 1026.7
20181210075319 18 351 0.0 0.0 0.00 0.01 0.00 93 1026.6
20181210074323 17 351 0.0 0.0 0.00 0.01 0.00 92 1026.4
20181210073326 17 351 0.0 0.0 0.00 0.01 0.00 92 1026.4
20181210072318 17 351 0.0 0.0 0.00 0.01 0.00 92 1026.5
20181210071322 17 351 0.0 0.0 0.00 0.01 0.00 91 1026.5
20181210070330 17 351 0.0 0.0 0.00 0.01 0.00 91 1026.5
20181210065333 18 351 0.0 0.0 0.00 0.01 0.00 92 1026.6
20181210064322 17 351 0.0 0.0 0.00 0.01 0.00 92 1026.5
20181210063328 17 351 0.0 0.0 0.00 0.01 0.00 92 1026.6
20181210062333 17 351 0.0 0.0 0.00 0.01 0.00 91 1026.5
20181210061316 17 351 0.0 0.0 0.00 0.01 0.00 92 1026.5
20181210060328 17 351 0.0 0.0 0.00 0.01 0.00 91 1026.5
20181210055333 18 351 0.0 0.0 0.00 0.01 0.01 91 1026.6
20181210054320 18 351 0.0 0.0 0.00 0.01 0.01 91 1026.6
20181210053327 18 351 0.0 0.0 0.00 0.01 0.01 91 1026.6
20181210052336 18 351 0.0 0.0 0.00 0.01 0.01 90 1026.7
20181210051320 19 351 0.0 0.0 0.00 0.01 0.01 91 1026.7
20181210050325 19 351 0.0 0.0 0.00 0.01 0.01 90 1026.6
20181210045330 19 351 0.0 0.0 0.00 0.01 0.01 89 1026.7
20181210044322 20 351 0.0 0.0 0.00 0.01 0.01 90 1026.8
20181210043326 21 351 0.0 0.0 0.00 0.01 0.01 89 1026.7
20181210042331 21 351 0.0 0.0 0.00 0.01 0.01 91 1026.7
20181210041318 21 351 0.0 0.0 0.00 0.01 0.01 91 1026.6
20181210040331 21 351 0.0 0.0 0.00 0.01 0.01 91 1026.6
20181210035316 21 351 0.0 0.0 0.00 0.01 0.01 91 1026.6
20181210034324 21 351 0.0 0.0 0.00 0.01 0.01 91 1026.6
20181210033329 21 351 0.0 0.0 0.00 0.01 0.01 92 1026.7
20181210032317 21 351 0.0 0.0 0.00 0.01 0.01 92 1026.7
20181210031323 21 351 0.0 0.0 0.00 0.01 0.01 91 1026.5
20181210030330 21 351 0.0 1.0 0.00 0.01 0.01 91 1026.5
20181210025318 21 351 0.0 0.0 0.00 0.01 0.01 91 1026.6
20181210024324 21 351 0.0 0.0 0.00 0.01 0.01 90 1026.6
20181210023332 21 351 0.0 0.0 0.00 0.01 0.01 90 1026.7
20181210022337 21 351 0.0 0.0 0.00 0.01 0.01 89 1026.7
20181210021325 22 351 0.0 0.0 0.00 0.01 0.01 89 1026.7
20181210020333 22 351 0.0 0.0 0.00 0.01 0.01 89 1026.7
20181210015321 22 351 0.0 0.0 0.00 0.01 0.01 89 1026.7
20181210014325 23 351 0.0 0.0 0.00 0.01 0.01 88 1026.8
20181210013334 23 351 0.0 0.0 0.00 0.01 0.01 88 1026.8
20181210012319 23 351 0.0 0.0 0.00 0.01 0.01 87 1026.8
20181210011322 24 351 0.0 0.0 0.00 0.01 0.01 87 1026.7
20181210010330 24 351 0.0 0.0 0.00 0.01 0.01 87 1026.8
20181210005321 25 351 0.0 2.0 0.00 0.01 0.01 87 1026.8
20181210004325 24 351 1.0 3.0 0.00 0.01 0.01 87 1026.7
20181210003331 25 351 0.0 0.0 0.00 0.01 0.01 85 1026.7
20181210002319 25 351 0.0 0.0 0.00 0.01 0.01 84 1026.8
20181210001330 26 351 0.0 0.0 0.00 0.01 0.01 83 1026.8
20181210000317 27 351 0.0 0.0 0.00 0.01 0.01 80 1026.7
20181209235322 28 351 0.0 0.0 0.00 0.01 0.01 78 1026.8
20181209234327 28 351 0.0 2.0 0.00 0.01 0.01 74 1026.8
20181209233318 29 351 0.0 0.0 0.00 0.01 0.01 73 1026.8
20181209232323 29 351 0.0 1.0 0.00 0.01 0.01 73 1026.7
20181209231328 30 351 1.0 2.0 0.00 0.01 0.01 71 1026.7
20181209230333 30 351 0.0 0.0 0.00 0.01 0.01 68 1026.8
20181209225322 31 351 0.0 0.0 0.00 0.01 0.01 67 1026.7
20181209224330 32 351 0.0 2.0 0.00 0.01 0.01 67 1026.8
20181209223314 33 351 1.0 3.0 0.00 0.01 0.01 67 1026.7
20181209222320 33 351 2.0 5.0 0.00 0.01 0.01 66 1026.6
20181209221331 33 355 1.0 4.0 0.00 0.01 0.01 66 1026.7
20181209220319 34 355 3.0 6.0 0.00 0.01 0.01 64 1026.6
20181209215324 34 345 2.0 7.0 0.01 0.02 0.01 63 1026.6
20181209214332 34 350 2.0 6.0 0.01 0.02 0.01 63 1026.4
20181209213320 34 344 3.0 5.0 0.01 0.02 0.01 63 1026.4
20181209212326 34 336 3.0 5.0 0.01 0.02 0.01 65 1026.2
20181209211333 35 338 1.0 3.0 0.01 0.02 0.01 62 1026.3
20181209210325 35 5 3.0 6.0 0.01 0.02 0.01 62 1026.4
20181209205331 35 331 3.0 7.0 0.00 0.01 0.00 62 1026.3
20181209204314 35 355 4.0 7.0 0.00 0.01 0.00 61 1026.4
20181209203322 35 355 2.0 8.0 0.00 0.01 0.00 61 1026.4
20181209202331 35 5 3.0 6.0 0.00 0.01 0.00 63 1026.5
20181209201335 35 23 4.0 5.0 0.00 0.01 0.00 63 1026.6
20181209200320 35 332 4.0 7.0 0.00 0.01 0.00 60 1026.7
20181209195324 35 249 1.0 9.0 0.00 0.01 0.00 62 1026.8
20181209194333 34 9 2.0 7.0 0.00 0.01 0.00 64 1026.9
20181209193336 34 27 3.0 9.0 0.00 0.01 0.00 63 1026.9
20181209192321 34 298 2.0 5.0 0.00 0.01 0.00 66 1027.0
20181209191329 33 292 1.0 7.0 0.00 0.01 0.00 66 1027.0
20181209190319 33 343 3.0 7.0 0.00 0.01 0.00 69 1027.1
20181209185324 32 303 4.0 8.0 0.00 0.01 0.00 69 1027.3
20181209184329 32 318 3.0 7.0 0.00 0.01 0.00 70 1027.3
20181209183315 32 355 2.0 6.0 0.00 0.01 0.00 71 1027.5
20181209182327 32 344 2.0 5.0 0.00 0.01 0.00 73 1027.5